Location: Wells
(51.2093°N, 2.6446°W)
Time: 11:27:23
(UTC+01:00)

LilacSat-2 - Pass Details

Date: 19 March 2026
Orbit: 412 x 424 km, 97.5° (Epoch: 20 April)

Event Time Altitude Azimuth Distance (km) Brightness Sun altitude
Rises 19:08:13 0° 165° (SSE) 2,391 ? -8.0°
Reaches altitude 10° 19:10:13 10° 165° (SSE) 1,529 ? -8.3°
Maximum altitude 19:13:29 90° 262° (W) 438 ? -8.8°
Drops below altitude 10° 19:16:48 10° 346° (NNW) 1,541 ? -9.4°
Sets 19:18:49 0° 347° (NNW) 2,412 ? -9.7°
